Skip Page Navigation
NASA JPL Caltech
NASA Logo - Jet Propulsion Laboratory + View the NASA Portal
+ Near-Earth Object (NEO) Program
Search JPL
JPL Home Earth Solar System Stars & Galaxies Technology
JPL Solar System Dynamics
BODIES ORBITS EPHEMERIDES TOOLS PHYSICAL DATA DISCOVERY FAQ SITE MAP
JPL Small-Body Database Browser
Search: [ help ]  
250706 (2005 RR6)
Classification: Apollo [NEO, PHA]          SPK-ID: 2250706
Ephemeris | Orbit Diagram | Orbital Elements | Physical Parameters | Discovery Circumstances | Close-Approach Data ]

[ hide orbit diagram ]
Orbit Diagram
Note: Make sure you have Java enabled on your browser to see the applet. This applet is provided as a 3D orbit visualization tool. The applet was implemented using 2-body methods, and hence should not be used for determining accurate long-term trajectories (over several years or decades) or planetary encounter circumstances. For accurate long-term ephemerides, please instead use our Horizons system.
Orbit Viewer

Additional Notes: the orbits shown in the applet are color coded. The planets are white lines, and the asteroid/comet is a blue line. The bright white line indicates the portion of the orbit that is above the ecliptic plane, and the darker portion is below the ecliptic plane. Likewise for the asteroid/comet orbit, the light blue indicates the portion above the ecliptic plane, and the dark blue the portion below the ecliptic plane.

Orbit Viewer applet originally written and kindly provided by Osamu Ajiki (AstroArts), and further modified by Ron Baalke (JPL).


Orbital Elements at Epoch 2456400.5 (2013-Apr-18.0) TDB
Reference: JPL 53 (heliocentric ecliptic J2000)
 Element Value Uncertainty (1-sigma)   Units 
e .6957740328808781 6.9872e-08  
a 2.975031272493354 4.2764e-08 AU
q .9050817660839224 2.0993e-07 AU
i 6.954011867246551 2.2392e-05 deg
node 28.1953481967966 6.5422e-05 deg
peri 58.91711074114127 6.7028e-05 deg
M 168.4914786042496 5.9507e-06 deg
tp 2455523.274655978540
(2010-Nov-22.77465598)
2.0655e-05 JED
period 1874.28543249641
5.13
4.0412e-05
1.106e-07
d
yr
n .1920731996089339 4.1413e-09 deg/d
Q 5.044980778902786 7.2517e-08 AU
  Orbit Determination Parameters
   # obs. used (total)      186  
   data-arc span      2063 days (5.65 yr)  
   first obs. used      2005-09-04  
   last obs. used      2011-04-29  
   planetary ephem.      DE405  
   SB-pert. ephem.      SB405-CPV-2  
   condition code      0  
   fit RMS      .51193  
   data source      ORB  
   producer      Otto Matic  
   solution date      2013-Apr-29 15:40:59  

Additional Information
 Earth MOID = .0402945 AU 
 T_jup = 2.827 
[ show covariance matrix ]

Ephemeris | Orbit Diagram | Orbital Elements | Physical Parameters | Discovery Circumstances | Close-Approach Data ]

Physical Parameter Table
Parameter Symbol Value Units Sigma Reference Notes
absolute magnitude H 18.495 mag .57391 53 autocmod 2.5c

250706 (2005 RR6)          Discovered 2005-Sep-04 by Tholen, D. J. at Mauna Kea (568)
Reference: 20100923/Numbers.arcLast Updated: 2010-09-27

[ show close-approach data ]
Ephemeris | Orbit Diagram | Orbital Elements | Physical Parameters | Discovery Circumstances | Close-Approach Data ]
ABOUT SSD CREDITS/AWARDS PRIVACY/COPYRIGHT GLOSSARY LINKS
FirstGov 2013-May-22 14:53 UT
(server date/time)  
NASA Home Page
Site Manager:   Donald K. Yeomans
Webmaster  Alan B. Chamberlin